User: anonymous   Login
Location: Wawayanda State Park
(41.1833°N, 74.4333°W)
Time: 19:03:00
(UTC-04:00)
Language:

RESURS DK-1 - Orbit

View from above orbital plane
View from above orbital plane
View from above satellite
View from above satellite

Ground track
Ground track

The orbit data is extracted from the following two-line orbital elements,

1 29228U 06021A   15089.81397060  .00001241  00000-0  10359-3 0  9998
2 29228 069.9400 356.2601 0004447 183.9025 232.4300 15.01351443486585
Epoch (UTC): 30 March 2015 19:32:07
Eccentricity: 0.0004447
inclination: 69.9400°
perigee height: 559 km
apogee height: 566 km
right ascension of ascending node: 356.2601°
argument of perigee: 183.9025°
revolutions per day: 15.01351443
mean anomaly at epoch: 232.4300°
orbit number at epoch: 48658

The dashed part of the orbit path shows where the satellite is in the earth's shadow,  

DLR